Tracking 20712 objects as of 29-May-2020
HD Live streaming from Space Station
objects crossing your sky now

IRIDIUM 33 DEB

Track IRIDIUM 33 DEB now!
10-day predictions


NORAD ID: 34148
Int'l Code: 1997-051EB
Perigee: 477.8 km
Apogee: 488.3 km
Inclination: 86.4 °
Period: 94.1 minutes
Semi major axis: 6854 km
RCS: 0.051 m2 (small)
Launch date: September 14, 1997
Source: United States (US)
Launch site: TYURATAM MISSILE AND SPACE COMPLEX (TTMTR)

Note: This is SATELLITE DEBRIS
aabbcc
Your satellite tracking list
Your tracking list is empty




NASA's NSSDC Master Catalog

Two Line Element Set (TLE):
1 34148U 97051EB  20150.16860743  .00030519  00000-0  10480-2 0  9998
2 34148  86.3821 106.2357 0007592  88.4300 271.7818 15.29965986604644
Source of the keplerian elements: AFSPC